{"data":{"norad_id":68217,"epoch":"2026-09-19T09:34:50.835936Z","epoch_age_seconds":146658,"freshness":"FRESH","line1":"1 68217U 26053L   26262.39919949  .00011220  00000+0  34938-3 0  9996","line2":"2 68217  97.2845 136.1770 0002306  90.2496 269.9011 15.33442020 29909","mean_motion":15.3344202,"eccentricity":0.0002306,"inclination_deg":97.2845,"raan_deg":136.177,"arg_perigee_deg":90.2496,"mean_anomaly_deg":269.9011,"bstar":0.00034938,"rev_number":2990,"period_min":93.906387148567,"perigee_km":463.97388618306,"apogee_km":467.13019556871,"semimajor_km":6843.6890408759,"source":"CELESTRAK","updated_at":"2026-09-20T09:00:43.834737Z"}}